Location: ???? ????
(41.4149°N, 22.8816°E)
Time: 15:02:17
(UTC+00:00)

H-2A R/B - Pass Details

Date: 14 July 2020
Orbit: 577 x 656 km, 98.5° (Epoch: 03 August)

Event Time Altitude Azimuth Distance (km) Brightness Sun altitude
Rises 02:01:19 0° 169° (S) 2,933 5.2 -10.8°
Reaches altitude 10° 02:03:32 10° 171° (S) 2,018 4.4 -10.5°
Maximum altitude 02:07:55 74° 256° (WSW) 655 2.0 -9.9°
Drops below altitude 10° 02:12:15 10° 343° (NNW) 1,985 5.0 -9.3°
Sets 02:14:25 0° 345° (NNW) 2,882 5.8 -9.0°
